RPA1455 KBOS-KLGA

Flight info

Callsign RPA1455
Flight time N/A
Altitude 16000
Route PATSS7 PATSS NELIE VADDR1
Aircraft CRJ9/M-SDFGIRWY/S

Departure

Time 2026-04-30 18:48
Airport Boston Logan International Airport (KBOS)

Arrival

Time N/A
Airport LaGuardia Airport (KLGA)
Time Latitude Longitude Altitude Speed Heading
2026-04-30 18:33 42.35975 -71.01791 25 ft 0 kts 10°
2026-04-30 18:37 42.35957 -71.01797 23 ft 4 kts 19°
2026-04-30 18:37 42.35936 -71.01815 26 ft 4 kts 49°
2026-04-30 18:38 42.35929 -71.01843 24 ft 4 kts 102°
2026-04-30 18:38 42.35930 -71.01849 24 ft 1 kts 108°
2026-04-30 18:41 42.35927 -71.01835 24 ft 3 kts 108°
2026-04-30 18:41 42.35918 -71.01801 26 ft 5 kts 108°
2026-04-30 18:41 42.35910 -71.01750 24 ft 6 kts 101°
2026-04-30 18:42 42.35903 -71.01702 25 ft 5 kts 101°
2026-04-30 18:42 42.35927 -71.01630 24 ft 5 kts 29°
2026-04-30 18:42 42.35966 -71.01611 24 ft 7 kts 19°
2026-04-30 18:45 42.36043 -71.01474 24 ft 12 kts 198°
2026-04-30 18:45 42.35956 -71.01515 24 ft 15 kts 199°
2026-04-30 18:45 42.35905 -71.01537 24 ft 3 kts 180°
2026-04-30 18:46 42.35880 -71.01522 24 ft 4 kts 116°
2026-04-30 18:46 42.35871 -71.01470 24 ft 8 kts 101°
2026-04-30 18:46 42.35858 -71.01381 25 ft 12 kts 101°
2026-04-30 18:46 42.35837 -71.01262 25 ft 15 kts 123°
2026-04-30 18:47 42.35777 -71.01252 24 ft 9 kts 200°
2026-04-30 18:47 42.35703 -71.01288 24 ft 13 kts 199°
2026-04-30 18:47 42.35607 -71.01293 24 ft 15 kts 144°
2026-04-30 18:47 42.35603 -71.01145 25 ft 21 kts 77°
2026-04-30 18:48 42.35642 -71.00918 24 ft 29 kts 77°
2026-04-30 18:48 42.35740 -71.00366 24 ft 93 kts 76°
2026-04-30 18:48 42.35945 -70.99221 26 ft 155 kts 77°
2026-04-30 18:48 42.36245 -70.97740 655 ft 163 kts 74°
2026-04-30 18:49 42.36594 -70.96287 1570 ft 158 kts 69°
2026-04-30 18:49 42.37008 -70.94924 2303 ft 159 kts 65°
2026-04-30 18:49 42.37351 -70.93352 2478 ft 193 kts 88°
2026-04-30 18:49 42.37413 -70.91427 2802 ft 216 kts 85°
2026-04-30 18:50 42.37626 -70.89292 3120 ft 244 kts 80°
2026-04-30 18:50 42.37998 -70.86981 3649 ft 265 kts 77°
2026-04-30 18:50 42.38461 -70.84490 4332 ft 279 kts 78°
2026-04-30 18:50 42.38922 -70.81903 5168 ft 286 kts 82°
2026-04-30 18:51 42.38994 -70.79217 6039 ft 287 kts 94°
2026-04-30 18:51 42.39120 -70.76499 6955 ft 291 kts 88°
2026-04-30 18:51 42.39434 -70.73771 7848 ft 296 kts 83°
2026-04-30 18:51 42.39443 -70.71039 8696 ft 287 kts 112°
2026-04-30 18:52 42.38436 -70.68828 9609 ft 273 kts 146°
2026-04-30 18:52 42.36763 -70.67827 10376 ft 264 kts 179°
2026-04-30 18:52 42.35005 -70.68346 11104 ft 263 kts 212°
2026-04-30 18:52 42.33727 -70.70109 11584 ft 269 kts 233°
2026-04-30 18:53 42.32676 -70.72208 12377 ft 272 kts 235°
2026-04-30 18:53 42.31668 -70.74463 12796 ft 292 kts 242°
2026-04-30 18:53 42.30915 -70.77067 13240 ft 309 kts 248°
2026-04-30 18:53 42.30250 -70.79894 13794 ft 320 kts 250°
2026-04-30 18:54 42.29629 -70.82795 14561 ft 322 kts 251°
2026-04-30 18:54 42.29030 -70.85732 15296 ft 326 kts 252°
2026-04-30 18:54 42.28417 -70.88742 15712 ft 340 kts 251°
2026-04-30 18:54 42.27721 -70.91871 15889 ft 353 kts 250°
2026-04-30 18:55 42.26975 -70.95049 15962 ft 357 kts 249°
2026-04-30 18:55 42.25461 -71.01528 16007 ft 367 kts 250°
2026-04-30 18:55 42.24687 -71.04830 16017 ft 371 kts 250°
2026-04-30 18:56 42.23113 -71.11549 16019 ft 379 kts 250°
2026-04-30 18:56 42.22311 -71.14965 16018 ft 382 kts 250°
2026-04-30 18:56 42.21505 -71.18384 16019 ft 382 kts 250°
2026-04-30 18:57 42.19900 -71.25201 16010 ft 380 kts 250°
2026-04-30 18:57 42.19099 -71.28593 16011 ft 379 kts 250°
2026-04-30 18:57 42.18309 -71.31939 16008 ft 378 kts 250°
2026-04-30 18:58 42.16707 -71.38681 16004 ft 377 kts 250°
2026-04-30 18:58 42.15910 -71.42046 16000 ft 376 kts 250°
2026-04-30 18:58 42.15122 -71.45358 16001 ft 375 kts 250°
2026-04-30 18:59 42.13523 -71.52053 16007 ft 375 kts 250°
2026-04-30 19:00 42.11420 -71.61607 16008 ft 375 kts 253°
2026-04-30 19:00 42.10773 -71.65010 16006 ft 375 kts 253°
2026-04-30 19:00 42.09495 -71.71805 16005 ft 374 kts 253°
2026-04-30 19:01 42.08264 -71.78617 16011 ft 374 kts 253°
2026-04-30 19:01 42.07665 -71.81972 16004 ft 374 kts 253°
2026-04-30 19:02 42.06440 -71.88769 16008 ft 374 kts 253°
2026-04-30 19:02 42.05306 -71.95305 16010 ft 374 kts 255°
2026-04-30 19:03 42.04270 -72.02111 16004 ft 374 kts 255°
2026-04-30 19:03 42.03249 -72.08961 16005 ft 374 kts 255°
2026-04-30 19:04 42.02213 -72.15822 15991 ft 374 kts 256°
2026-04-30 19:04 42.01173 -72.22661 16002 ft 373 kts 256°
2026-04-30 19:05 42.00166 -72.29327 16009 ft 373 kts 256°
2026-04-30 19:05 41.99123 -72.36152 15997 ft 372 kts 255°
2026-04-30 19:06 41.98076 -72.42965 16000 ft 372 kts 255°
2026-04-30 19:06 41.97551 -72.46366 15994 ft 372 kts 255°
2026-04-30 19:06 41.96506 -72.53161 15991 ft 371 kts 255°
2026-04-30 19:07 41.94940 -72.59601 15991 ft 367 kts 246°
2026-04-30 19:07 41.94009 -72.62618 16011 ft 368 kts 245°
2026-04-30 19:08 41.92038 -72.68946 16001 ft 368 kts 245°
2026-04-30 19:08 41.90048 -72.75272 15983 ft 367 kts 245°
2026-04-30 19:08 41.89053 -72.78424 15984 ft 367 kts 245°
2026-04-30 19:09 41.87058 -72.84719 15988 ft 366 kts 245°
2026-04-30 19:09 41.85995 -72.87815 15985 ft 365 kts 242°
2026-04-30 19:09 41.84788 -72.90806 15989 ft 364 kts 239°
2026-04-30 19:10 41.82251 -72.96568 16018 ft 364 kts 239°
2026-04-30 19:10 41.79702 -73.02308 16012 ft 365 kts 238°
2026-04-30 19:11 41.78412 -73.05238 16012 ft 365 kts 239°
2026-04-30 19:11 41.75851 -73.11132 16009 ft 366 kts 239°
2026-04-30 19:11 41.74592 -73.14048 16002 ft 366 kts 239°
2026-04-30 19:12 41.73322 -73.16978 16000 ft 365 kts 239°
2026-04-30 19:12 41.72037 -73.19913 16004 ft 365 kts 239°
2026-04-30 19:12 41.70759 -73.22852 16003 ft 365 kts 239°
2026-04-30 19:13 41.68679 -73.29032 16011 ft 365 kts 248°
2026-04-30 19:13 41.66895 -73.35296 16005 ft 365 kts 248°
2026-04-30 19:13 41.65943 -73.38444 16005 ft 365 kts 246°
2026-04-30 19:14 41.64979 -73.41589 16007 ft 365 kts 246°
2026-04-30 19:14 41.64008 -73.44729 15996 ft 365 kts 246°
2026-04-30 19:14 41.63043 -73.47867 16003 ft 365 kts 246°
2026-04-30 19:14 41.62070 -73.51008 16004 ft 365 kts 246°
2026-04-30 19:15 41.61105 -73.54142 15992 ft 365 kts 247°
2026-04-30 19:15 41.59181 -73.60375 15981 ft 365 kts 247°
2026-04-30 19:15 41.58140 -73.63460 15979 ft 364 kts 240°
2026-04-30 19:16 41.56761 -73.66168 16009 ft 364 kts 233°
2026-04-30 19:16 41.55181 -73.68806 15996 ft 364 kts 231°
2026-04-30 19:16 41.51935 -73.73998 15999 ft 360 kts 231°
2026-04-30 19:17 41.50895 -73.75699 15998 ft 342 kts 232°
2026-04-30 19:17 41.48153 -73.80312 15968 ft 305 kts 232°
2026-04-30 19:17 41.46851 -73.82503 15866 ft 293 kts 232°
2026-04-30 19:18 41.44727 -73.86062 15150 ft 301 kts 233°
2026-04-30 19:18 41.42630 -73.88563 14619 ft 314 kts 206°
2026-04-30 19:18 41.40447 -73.88985 14247 ft 328 kts 178°
2026-04-30 19:19 41.38270 -73.87922 13879 ft 343 kts 151°
2026-04-30 19:19 41.36572 -73.85625 13532 ft 353 kts 131°
2026-04-30 19:19 41.33265 -73.80978 12728 ft 339 kts 139°
2026-04-30 19:20 41.31614 -73.78769 12318 ft 333 kts 138°
2026-04-30 19:20 41.30013 -73.76564 11903 ft 329 kts 137°
2026-04-30 19:20 41.26670 -73.72602 11103 ft 316 kts 150°
2026-04-30 19:21 41.24810 -73.71031 10605 ft 316 kts 152°
2026-04-30 19:21 41.21187 -73.68001 9555 ft 305 kts 150°
2026-04-30 19:22 41.17760 -73.64942 8419 ft 297 kts 149°
2026-04-30 19:22 41.12612 -73.60744 6408 ft 288 kts 171°
2026-04-30 19:23 41.07350 -73.63057 4421 ft 260 kts 217°
2026-04-30 19:24 41.04572 -73.65528 4039 ft 224 kts 216°
2026-04-30 19:24 41.03341 -73.66593 3981 ft 210 kts 216°
2026-04-30 19:24 41.00983 -73.68554 3981 ft 193 kts 214°
2026-04-30 19:25 40.97795 -73.71210 3974 ft 168 kts 215°
2026-04-30 19:26 40.95960 -73.72691 3909 ft 180 kts 216°
2026-04-30 19:26 40.94031 -73.74238 3955 ft 177 kts 214°
2026-04-30 19:26 40.92983 -73.75060 3753 ft 180 kts 217°
2026-04-30 19:27 40.90659 -73.77079 2800 ft 213 kts 214°
2026-04-30 19:27 40.88150 -73.79108 2550 ft 180 kts 216°
2026-04-30 19:28 40.87223 -73.79870 2342 ft 149 kts 217°
2026-04-30 19:28 40.85500 -73.81183 1441 ft 132 kts 211°
2026-04-30 19:29 40.83950 -73.82471 1129 ft 123 kts 218°
2026-04-30 19:29 40.83223 -73.83140 1000 ft 130 kts 218°
2026-04-30 19:30 40.81093 -73.84950 656 ft 133 kts 218°
2026-04-30 19:30 40.79396 -73.86337 263 ft 142 kts 217°
2026-04-30 19:31 40.77808 -73.87676 21 ft 121 kts 213°
2026-04-30 19:31 40.77130 -73.88237 22 ft 98 kts 212°